Location: Chin
(49.7667°N, 112.4500°W)
Time: 11:16:37
(UTC+00:00)

N. Korean satellite - Pass Details

Date: 05 December 2021
Orbit: 447 x 490 km, 97.3° (Epoch: 27 January)

Event Time Altitude Azimuth Distance (km) Brightness Sun altitude
Rises 13:43:38 0° 2° (N) 2,472 10.0 -13.4°
Reaches altitude 10° 13:45:55 10° 348° (NNW) 1,590 8.9 -13.0°
Maximum altitude 13:48:42 24° 293° (WNW) 984 7.5 -12.6°
Drops below altitude 10° 13:51:27 10° 238° (WSW) 1,575 8.8 -12.2°
Sets 13:53:43 0° 224° (SW) 2,442 9.9 -11.8°
